Weather History for Cook, MN

Change the Weather History Date:

Tuesday, January 21, 2014

  Actual Average Record
Temperature  
Mean Temperature -14 °F -  
Max Temperature 0 °F 15 °F 28 °F (1997)
Min Temperature -29 °F -1 °F -38 °F (2011)
Degree Days  
Heating Degree Days 80    
Moisture  
Dew Point -18 °F    
Average Humidity 74    
Maximum Humidity 85    
Minimum Humidity 55    
Precipitation  
Precipitation 0.00 in - - ()
Sea Level Pressure  
Sea Level Pressure 30.13 in    
Wind  
Wind Speed 3 mph (SSW)    
Max Wind Speed 9 mph    
Max Gust Speed -    
Visibility 8 miles    
Events Snow    
Averages and records for this station are not official NWS values.
T = Trace of Precipitation, MM = Missing Value Source: NWS Daily Summary

Daily Weather History Graph

Daily Weather History Graph

Search for Another Location

Airport:

Trip Planner

Search our weather history database for the weather conditions in past years. The results will help you decide how hot, cold, wet, or windy it might be!

Date:

Astronomy

Jan. 21, 2014 Rise Set
Actual Time 7:50 AM CST 4:54 PM CST
Civil Twilight 7:15 AM CST 5:28 PM CST
Nautical Twilight 6:37 AM CST 6:06 PM CST
Astronomical Twilight 6:01 AM CST 6:43 PM CST
Moon 10:56 PM CST (1/21) 9:54 AM CST (1/21)
Length of Visible Light 10h 12m
Length of Day
9h 04m
Waning Gibbous, 74% of the Moon is Illuminated
Jan 21
Waning Gibbous
Jan 23
Last Quarter
Jan 30
New
Feb 6
First Quarter
Feb 14
Full

Hourly Weather History & Observations

Time (CST) Temp. Windchill Dew Point Humidity Pressure Visibility Wind Dir Wind Speed Gust Speed Precip Events Conditions
12:14 AM -20.2 °F -30.9 °F -25.6 °F 76% 30.36 in 10.0 mi West 3.5 mph - N/A   Clear
12:35 AM -20.2 °F -33.5 °F -25.6 °F 76% 30.36 in 10.0 mi West 4.6 mph - N/A   Clear
12:55 AM -20.2 °F -35.5 °F -25.6 °F 76% 30.36 in 10.0 mi WNW 5.8 mph - N/A   Clear
1:14 AM -20.2 °F -33.5 °F -25.6 °F 76% 30.35 in 10.0 mi WNW 4.6 mph - N/A   Clear
1:35 AM -22.0 °F -33.0 °F -27.4 °F 76% 30.35 in 10.0 mi West 3.5 mph - N/A   Clear
1:55 AM -23.8 °F - -27.4 °F 83% 30.34 in 10.0 mi Calm Calm - N/A   Clear
2:14 AM -25.6 °F -37.1 °F -29.2 °F 83% 30.35 in 10.0 mi West 3.5 mph - N/A   Clear
2:35 AM -23.8 °F -37.7 °F -29.2 °F 76% 30.35 in 10.0 mi West 4.6 mph - N/A   Clear
2:55 AM -23.8 °F - -29.2 °F 76% 30.34 in 10.0 mi Calm Calm - N/A   Clear
3:14 AM -23.8 °F -35.0 °F -29.2 °F 76% 30.35 in 10.0 mi West 3.5 mph - N/A   Clear
3:35 AM -23.8 °F - -29.2 °F 76% 30.34 in 10.0 mi Calm Calm - N/A   Clear
3:55 AM -25.6 °F - -31.0 °F 76% 30.33 in 10.0 mi Calm Calm - N/A   Clear
4:14 AM -25.6 °F - -31.0 °F 76% 30.34 in 10.0 mi Calm Calm - N/A   Clear
4:35 AM -25.6 °F - -31.0 °F 76% 30.33 in 10.0 mi Calm Calm - N/A   Clear
4:55 AM -25.6 °F - -32.8 °F 69% 30.32 in 10.0 mi Calm Calm - N/A   Clear
5:14 AM -27.4 °F - -34.6 °F 69% 30.30 in 10.0 mi Calm Calm - N/A   Clear
5:35 AM -27.4 °F - -32.8 °F 75% 30.31 in 10.0 mi Calm Calm - N/A   Clear
5:55 AM -29.2 °F - -36.4 °F 68% 30.30 in 10.0 mi Calm Calm - N/A   Clear
6:14 AM -29.2 °F - -36.4 °F 68% 30.30 in 10.0 mi Calm Calm - N/A   Clear
6:35 AM -29.2 °F - -36.4 °F 68% 30.29 in 10.0 mi Calm Calm - N/A   Clear
6:54 AM -27.4 °F - -32.8 °F 75% 30.28 in 10.0 mi Calm Calm - N/A   Scattered Clouds
7:14 AM -25.6 °F - -32.8 °F 69% 30.28 in 10.0 mi Calm Calm - N/A   Scattered Clouds
7:35 AM -25.6 °F - -31.0 °F 76% 30.27 in 10.0 mi Calm Calm - N/A   Clear
7:55 AM -25.6 °F - -31.0 °F 76% 30.26 in 10.0 mi Calm Calm - N/A   Clear
8:14 AM -25.6 °F - -31.0 °F 76% 30.26 in 10.0 mi Calm Calm - N/A   Clear
8:35 AM -23.8 °F - -29.2 °F 76% 30.24 in 10.0 mi Calm Calm - N/A   Clear
8:55 AM -23.8 °F - -29.2 °F 76% 30.24 in 7.0 mi Calm Calm - N/A   Clear
9:14 AM -20.2 °F -30.9 °F -25.6 °F 76% 30.24 in 10.0 mi SSW 3.5 mph - N/A   Clear
9:35 AM -18.4 °F - -25.6 °F 70% 30.22 in 10.0 mi Calm Calm - N/A   Clear
9:54 AM -18.4 °F - -23.8 °F 76% 30.22 in 10.0 mi Calm Calm - N/A   Clear
10:15 AM -16.6 °F - -20.2 °F 84% 30.21 in 10.0 mi Calm Calm - N/A   Clear
10:35 AM -14.8 °F - -20.2 °F 77% 30.21 in 10.0 mi Calm Calm - N/A   Clear
10:50 AM -13.0 °F -22.7 °F -18.4 °F 77% 30.19 in 10.0 mi SSW 3.5 mph - N/A   Clear
11:15 AM -11.2 °F - -18.4 °F 70% 30.18 in 10.0 mi Calm Calm - N/A   Clear
11:35 AM -9.4 °F -20.9 °F -18.4 °F 65% 30.16 in 10.0 mi South 4.6 mph - N/A   Clear
11:54 AM -9.4 °F -18.6 °F -16.6 °F 71% 30.15 in 10.0 mi SSE 3.5 mph - N/A   Clear
12:15 PM -7.6 °F -20.6 °F -16.6 °F 65% 30.14 in 10.0 mi SE 5.8 mph - N/A   Clear
12:35 PM -4.0 °F -14.6 °F -14.8 °F 60% 30.13 in 10.0 mi SSW 4.6 mph - N/A   Clear
12:54 PM -2.2 °F -12.5 °F -14.8 °F 55% 30.11 in 10.0 mi SSE 4.6 mph - N/A   Clear
1:15 PM -2.2 °F -10.4 °F -14.8 °F 55% 30.09 in 10.0 mi SE 3.5 mph - N/A   Scattered Clouds
1:35 PM -2.2 °F -14.2 °F -13.0 °F 60% 30.08 in 10.0 mi SSW 5.8 mph - N/A   Clear
1:54 PM -0.4 °F -12.0 °F -13.0 °F 55% 30.07 in 10.0 mi SSE 5.8 mph - N/A   Scattered Clouds
2:15 PM -0.4 °F -10.4 °F -13.0 °F 55% 30.06 in 10.0 mi South 4.6 mph - N/A   Clear
2:35 PM -0.4 °F -12.0 °F -11.2 °F 60% 30.05 in 10.0 mi SSW 5.8 mph - N/A   Mostly Cloudy
2:54 PM -0.4 °F -15.7 °F -11.2 °F 60% 30.05 in 4.0 mi SSW 9.2 mph - N/A Snow Light Snow
3:15 PM -0.4 °F -13.4 °F -9.4 °F 66% 30.03 in 5.0 mi South 6.9 mph - N/A Snow Light Snow
3:35 PM -0.4 °F -14.7 °F -9.4 °F 66% 30.02 in 10.0 mi South 8.1 mph - N/A   Overcast
3:54 PM -0.4 °F -15.7 °F -9.4 °F 66% 30.02 in 10.0 mi SSW 9.2 mph - N/A   Overcast
4:15 PM -0.4 °F -13.4 °F -9.4 °F 66% 30.00 in 10.0 mi SSE 6.9 mph - N/A   Overcast
4:35 PM -0.4 °F -13.4 °F -9.4 °F 66% 29.99 in 10.0 mi SSE 6.9 mph - N/A   Overcast
4:54 PM -0.4 °F -10.4 °F -9.4 °F 66% 29.99 in 2.0 mi SSE 4.6 mph - N/A Snow Light Snow
5:15 PM -0.4 °F -13.4 °F -7.6 °F 72% 29.98 in 3.0 mi South 6.9 mph - N/A Snow Light Snow
5:35 PM -0.4 °F -12.0 °F -7.6 °F 72% 29.97 in 3.0 mi SSE 5.8 mph - N/A Snow Light Snow
5:54 PM -0.4 °F -8.3 °F -5.8 °F 78% 29.96 in 2.5 mi SSE 3.5 mph - N/A Snow Light Snow
6:15 PM -0.4 °F -8.3 °F -5.8 °F 78% 29.95 in 2.0 mi South 3.5 mph - N/A Snow Light Snow
6:35 PM -2.2 °F -15.6 °F -7.6 °F 78% 29.95 in 2.5 mi South 6.9 mph - N/A Snow Light Snow
6:54 PM -2.2 °F -12.5 °F -5.8 °F 85% 29.95 in 1.0 mi South 4.6 mph - N/A Snow Light Snow
7:15 PM -2.2 °F -10.4 °F -5.8 °F 85% 29.94 in 1.5 mi South 3.5 mph - N/A Snow Light Snow
7:35 PM -2.2 °F -14.2 °F -5.8 °F 85% 29.93 in 1.5 mi SSW 5.8 mph - N/A Snow Light Snow
7:55 PM -2.2 °F -12.5 °F -5.8 °F 85% 29.93 in 2.0 mi SSW 4.6 mph - N/A Snow Light Snow
8:14 PM -2.2 °F -14.2 °F -5.8 °F 85% 29.92 in 2.0 mi SSW 5.8 mph - N/A Snow Light Snow
8:35 PM -2.2 °F -12.5 °F -5.8 °F 85% 29.92 in 2.5 mi SSW 4.6 mph - N/A Snow Light Snow
8:54 PM -2.2 °F -12.5 °F -5.8 °F 85% 29.92 in 2.0 mi SSW 4.6 mph - N/A Snow Light Snow
9:15 PM -2.2 °F -14.2 °F -5.8 °F 85% 29.89 in 2.5 mi SSW 5.8 mph - N/A Snow Light Snow
9:34 PM -2.2 °F -14.2 °F -5.8 °F 85% 29.89 in 3.0 mi SW 5.8 mph - N/A Snow Light Snow
9:55 PM -2.2 °F -16.8 °F -5.8 °F 85% 29.89 in 3.0 mi SW 8.1 mph - N/A Snow Light Snow
10:15 PM -2.2 °F -15.6 °F -7.6 °F 78% 29.88 in 5.0 mi SW 6.9 mph - N/A Snow Light Snow
10:34 PM -2.2 °F -15.6 °F -7.6 °F 78% 29.88 in 10.0 mi SW 6.9 mph - N/A Snow Light Snow
10:55 PM -2.2 °F -14.2 °F -7.6 °F 78% 29.87 in 10.0 mi SW 5.8 mph - N/A Snow Light Snow
11:14 PM -2.2 °F -12.5 °F -7.6 °F 78% 29.86 in 10.0 mi SW 4.6 mph - N/A Snow Light Snow
11:35 PM -2.2 °F -14.2 °F -7.6 °F 78% 29.86 in 10.0 mi SW 5.8 mph - N/A   Overcast
11:55 PM -2.2 °F -15.6 °F -7.6 °F 78% 29.85 in 10.0 mi WSW 6.9 mph - N/A   Overcast